User: anonymous   Login
Location: Newsoms
(36.6240°N, 77.1250°W)
Time: 13:37:26
(UTC-04:00)
Language:

BREEZE-M DEB (TANK) - Orbit

View from above orbital plane
View from above orbital plane
View from above satellite
View from above satellite

Ground track
Ground track

The orbit data is extracted from the following two-line orbital elements,

1 29649U 06056B   16144.07864015  .00002848  00000-0  39410-3 0  9996
2 29649  49.4569 158.9340 5399086 278.0420  26.8609  4.98417223168299
Epoch (UTC): 23 May 2016 01:53:14
Eccentricity: 0.5399086
inclination: 49.4569°
perigee height: 282 km
apogee height: 15915 km
right ascension of ascending node: 158.9340°
argument of perigee: 278.0420°
revolutions per day: 4.98417223
mean anomaly at epoch: 26.8609°
orbit number at epoch: 16829

The dashed part of the orbit path shows where the satellite is in the earth's shadow,  

DLR